Kansas City, MO

2:47 AM CDT on August 31, 2016 (GMT -0500)
Kansas City Downtown

Weather History for KMKC - September, 2014

Change the Weather History Date:

Tuesday, September 2, 2014

  Actual Average Record
Temperature  
Mean Temperature 76 °F -  
Max Temperature 84 °F 85 °F 106 °F (2000)
Min Temperature 69 °F 65 °F 60 °F (2007)
Cooling Degree Days 12    
Growing Degree Days 26 (Base 50)    
Moisture  
Dew Point 68 °F    
Average Humidity 82    
Maximum Humidity 96    
Minimum Humidity 55    
Precipitation  
Precipitation 0.00 in - - ()
Sea Level Pressure  
Sea Level Pressure 29.94 in    
Wind  
Wind Speed 4 mph (West)    
Max Wind Speed 9 mph    
Max Gust Speed -    
Visibility 6 miles    
Events      
Averages and records for this station are not official NWS values.
T = Trace of Precipitation, MM = Missing Value Source: NWS Daily Summary

Daily Weather History Graph

Daily Weather History Graph

Search for Another Location

Airport or City:

Trip Planner

Search our weather history database for the weather conditions in past years. The results will help you decide how hot, cold, wet, or windy it might be!

Date:

Astronomy

Sep. 02, 2014 Rise Set
Actual Time 6:48 AM CDT 7:47 PM CDT
Civil Twilight 6:20 AM CDT 8:14 PM CDT
Nautical Twilight 5:48 AM CDT 8:47 PM CDT
Astronomical Twilight 5:14 AM CDT 9:20 PM CDT
Moon 2:29 PM CDT (9/2) No Moon Set
Length of Visible Light 13h 53m
Length of Day
12h 59m
First Quarter, 53% of the Moon is Illuminated
Sep 2
First Quarter
Sep 8
Full
Sep 15
Last Quarter
Sep 24
New
Oct 1
First Quarter

Hourly Weather History & Observations

Time (CDT) Temp. Heat Index Dew Point Humidity Pressure Visibility Wind Dir Wind Speed Gust Speed Precip Events Conditions
12:54 AM 73.0 °F - 69.1 °F 87% 29.88 in 10.0 mi South 6.9 mph - N/A   Mostly Cloudy
1:54 AM 72.0 °F - 69.1 °F 91% 29.88 in 10.0 mi Calm Calm - N/A   Clear
2:54 AM 72.0 °F - 69.1 °F 91% 29.89 in 8.0 mi NNW 3.5 mph - N/A   Clear
3:31 AM 72.0 °F - 69.1 °F 91% 29.92 in 5.0 mi North 6.9 mph - N/A   Scattered Clouds
3:40 AM 71.1 °F - 69.1 °F 93% 29.93 in 4.0 mi NNW 4.6 mph - N/A   Mostly Cloudy
3:54 AM 71.1 °F - 69.1 °F 93% 29.90 in 5.0 mi North 5.8 mph - N/A   Mostly Cloudy
4:12 AM 71.1 °F - 68.0 °F 90% 29.93 in 4.0 mi Calm Calm - N/A   Scattered Clouds
4:54 AM 69.1 °F - 66.9 °F 93% 29.88 in 5.0 mi Calm Calm - N/A   Clear
5:54 AM 70.0 °F - 68.0 °F 93% 29.89 in 5.0 mi Calm Calm - N/A   Clear
6:39 AM 69.1 °F - 66.9 °F 93% 29.92 in 3.0 mi Calm Calm - N/A   Scattered Clouds
6:47 AM 69.1 °F - 68.0 °F 96% 29.92 in 1.8 mi Calm Calm - N/A   Scattered Clouds
6:54 AM 70.0 °F - 68.0 °F 93% 29.91 in 1.8 mi Calm Calm - N/A   Mostly Cloudy
6:57 AM 70.0 °F - 68.0 °F 93% 29.93 in 3.0 mi NW 3.5 mph - N/A   Mostly Cloudy
7:26 AM 71.1 °F - 69.1 °F 93% 29.95 in 1.8 mi SW 4.6 mph - N/A   Overcast
7:50 AM 71.6 °F - 69.8 °F 94% 29.97 in 2.0 mi Variable 3.5 mph - N/A   Overcast
7:51 AM 71.1 °F - 69.1 °F 93% 29.95 in 2.0 mi SW 3.5 mph - N/A   Overcast
8:47 AM 71.1 °F - 69.1 °F 93% 29.97 in 1.8 mi NNW 3.5 mph - N/A   Overcast
8:54 AM 71.1 °F - 69.1 °F 93% 29.96 in 1.0 mi NNW 4.6 mph - N/A   Overcast
9:03 AM 71.1 °F - 69.1 °F 93% 29.98 in 0.8 mi Calm Calm - N/A   Overcast
9:12 AM 72.0 °F - 70.0 °F 93% 29.97 in 1.5 mi Calm Calm - N/A   Overcast
9:25 AM 72.0 °F - 70.0 °F 93% 29.97 in 2.5 mi Calm Calm - N/A   Overcast
9:36 AM 72.0 °F - 69.1 °F 91% 29.98 in 3.0 mi North 3.5 mph - N/A   Overcast
9:54 AM 72.0 °F - 69.1 °F 91% 29.97 in 5.0 mi North 3.5 mph - N/A   Mostly Cloudy
10:25 AM 73.0 °F - 68.0 °F 84% 30.00 in 9.0 mi Calm Calm - N/A   Scattered Clouds
10:54 AM 75.0 °F - 68.0 °F 79% 29.97 in 10.0 mi NW 3.5 mph - N/A   Mostly Cloudy
11:07 AM 75.2 °F - 68.0 °F 78% 29.99 in 9.0 mi Variable 3.5 mph - N/A   Scattered Clouds
11:54 AM 78.1 °F - 69.1 °F 74% 29.98 in 10.0 mi Variable 3.5 mph - N/A   Partly Cloudy
12:28 PM 78.1 °F - 69.1 °F 74% 30.01 in 10.0 mi SSW 4.6 mph - N/A   Mostly Cloudy
12:54 PM 80.1 °F 82.7 °F 68.0 °F 67% 29.99 in 10.0 mi South 4.6 mph - N/A   Mostly Cloudy
1:06 PM 81.0 °F 83.8 °F 68.0 °F 65% 30.01 in 10.0 mi SW 4.6 mph - N/A   Mostly Cloudy
1:54 PM 82.0 °F 84.9 °F 68.0 °F 62% 29.98 in 10.0 mi SW 6.9 mph - N/A   Scattered Clouds
2:54 PM 82.0 °F 84.5 °F 66.9 °F 60% 29.96 in 10.0 mi WSW 8.1 mph - N/A   Partly Cloudy
3:54 PM 82.9 °F 85.0 °F 66.0 °F 56% 29.94 in 10.0 mi SW 6.9 mph - N/A   Clear
4:54 PM 84.0 °F 86.3 °F 66.0 °F 55% 29.92 in 10.0 mi WSW 8.1 mph - N/A   Partly Cloudy
5:54 PM 82.9 °F 85.0 °F 66.0 °F 56% 29.91 in 10.0 mi Variable 5.8 mph - N/A   Clear
6:54 PM 82.0 °F 84.1 °F 66.0 °F 58% 29.91 in 10.0 mi Variable 3.5 mph - N/A   Clear
7:54 PM 80.1 °F 82.3 °F 66.9 °F 64% 29.92 in 10.0 mi NW 3.5 mph - N/A   Clear
8:54 PM 78.1 °F - 66.9 °F 68% 29.93 in 10.0 mi Calm Calm - N/A   Clear
9:54 PM 75.0 °F - 66.9 °F 76% 29.95 in 10.0 mi East 3.5 mph - N/A   Clear
10:54 PM 73.9 °F - 68.0 °F 82% 29.95 in 10.0 mi South 4.6 mph - N/A   Clear
11:54 PM 75.0 °F - 69.1 °F 82% 29.96 in 10.0 mi South 9.2 mph - N/A   Clear